CAPE
0 4 2 5 1 4 3 0 0 0 0 0 0 0 0 0 0 0 0 0 0 0 0 0 0 0 0 0 0 0 0 0 0 0 0 0 0 0 0 0 0 0 0 0 0 0 0
1 2 3 8 5 2 1 0 0 0 0 0 0 0 0 0 0 0 0 0 0 0 0 0 0 0 0 0 0 0 0 0 0 0 0 0 0 0 0 0 0 0 0 0 0 0 0
5 4 4 4 6 4 2 0 0 0 0 0 0 0 0 0 0 0 0 0 0 0 0 0 0 0 0 0 0 0 0 0 0 0 0 0 0 0 0 0 0 0 0 0 0 0 0
2 5 2 2 3 5 3 0 0 0 0 0 0 0 0 0 0 0 0 0 0 0 0 0 0 0 0 0 0 0 0 0 0 0 0 0 0 0 0 0 0 0 0 0 0 0 0
0 3 2 2 0 1 1 1 0 0 0 0 0 0 0 0 0 0 0 0 0 0 0 0 0 0 0 0 0 0 0 0 0 0 0 0 0 0 0 0 0 0 0 0 0 0 0
0 0 1 0 0 1 2 3 0 0 0 0 0 0 0 0 0 0 0 0 0 0 0 0 0 0 0 0 0 0 0 0 0 0 0 0 0 0 0 0 0 0 0 0 0 0 0
6 2 0 0 0 0 1 0 0 0 0 0 0 0 0 0 0 0 0 0 0 0 0 0 0 0 0 0 0 0 0 0 0 0 0 0 0 0 0 0 0 0 0 0 0 0 0
0 6 3 0 0 1 0 0 0 0 0 0 0 0 0 0 0 0 0 0 0 0 0 0 0 0 0 0 0 0 0 0 0 0 0 0 0 0 0 0 0 0 0 0 0 0 0
0 0 4 0 0 0 0 0 0 0 0 0 0 0 0 0 0 0 0 0 0 0 0 0 0 0 0 0 0 0 0 0 0 0 0 0 0 0 0 0 0 0 0 0 0 0 0
0 0 0 1 0 0 0 0 0 0 0 0 0 0 0 0 0 0 0 0 0 0 0 0 0 0 0 0 0 0 0 0 0 0 0 0 0 0 0 0 0 0 0 0 0 0 0
0 0 0 0 0 0 0 0 0 0 0 0 0 0 0 0 0 0 0 0 0 0 0 0 0 0 0 0 0 0 0 0 0 0 0 0 0 0 0 0 0 0 0 0 0 0 0
0 0 0 0 0 0 0 0 0 0 0 0 0 0 0 0 0 0 0 0 0 0 0 0 0 0 0 0 0 0 0 0 0 0 0 0 0 0 0 0 0 0 0 0 0 0 0
0 0 0 0 0 0 0 0 0 0 0 0 0 0 0 0 0 0 0 0 0 0 0 0 0 0 0 0 0 0 0 0 0 0 0 0 0 0 0 0 0 0 0 0 0 0 0
2 0 0 0 0 0 0 0 0 0 0 0 0 0 0 0 0 0 0 0 0 0 0 0 0 0 0 0 0 0 0 0 0 0 0 0 0 0 0 0 0 0 0 0 0 0 0
1 2 1 0 0 0 0 0 0 0 0 0 0 0 0 0 0 0 0 0 0 0 0 0 0 0 0 0 0 0 0 0 0 0 0 0 0 0 0 0 0 0 0 0 0 0 0
2 1 1 1 0 0 0 0 0 0 0 0 0 0 0 0 0 0 0 0 0 0 0 0 0 0 0 0 0 0 0 0 0 0 0 0 0 0 0 0 0 0 0 0 0 0 0
0 0 5 1 1 0 0 0 0 0 0 0 0 0 0 0 0 0 0 0 0 0 0 0 0 0 0 0 0 0 0 0 0 0 0 0 0 0 0 0 0 0 0 0 0 0 0
1 0 0 1 2 0 0 0 0 0 0 0 0 0 0 0 0 0 0 0 0 0 0 0 0 0 0 0 0 0 0 0 0 0 0 0 0 0 0 0 0 0 0 0 0 0 0
15 2 0 2 3 2 0 0 0 0 0 0 0 0 0 0 0 0 0 0 0 0 0 0 0 0 0 0 0 0 0 0 0 0 0 0 0 0 0 0 0 0 0 0 0 0 0
92 33 1 9 5 0 3 1 0 0 0 0 0 0 0 0 0 0 0 0 0 0 0 0 0 0 0 0 0 0 0 0 0 0 0 0 0 0 0 0 0 0 0 0 0 0 0
72 45 26 7 6 0 0 38 2 0 0 0 0 0 0 0 0 0 0 0 0 0 0 0 0 0 0 0 0 0 0 0 0 0 0 0 0 0 0 0 0 0 0 0 0 0 0
94 76 26 57 7 0 0 2 22 1 0 0 0 0 0 0 0 0 0 0 0 0 0 0 0 0 0 0 0 0 0 0 0 0 0 0 0 0 0 0 0 0 0 0 0 0 0
82 89 58 33 19 0 0 0 1 1 0 0 0 0 0 0 0 0 0 0 0 0 0 0 0 0 0 0 0 0 0 0 0 0 0 0 0 0 0 0 0 0 0 0 0 0 0
76 93 78 38 52 15 0 3 0 1 0 0 0 0 0 0 0 0 0 0 0 0 0 0 0 0 0 0 0 0 0 0 0 0 0 0 0 0 0 0 0 0 0 0 0 0 0
93 108 105 95 23 39 6 0 1 3 0 0 0 0 0 0 0 0 0 0 0 0 0 0 0 0 0 0 0 0 0 0 0 0 0 0 0 0 0 0 0 0 0 0 0 0 0
96 101 123 119 44 53 2 0 1 2 2 0 0 0 0 0 0 0 0 0 0 0 0 0 0 0 0 0 0 0 0 0 0 0 0 0 0 0 0 0 0 0 0 0 0 0 0
109 120 125 110 116 69 8 0 1 1 2 2 0 0 0 0 0 0 0 0 0 0 0 0 0 0 0 0 0 0 0 0 0 0 0 0 0 0 0 0 0 0 0 0 0 0 0
115 109 61 109 89 76 41 0 12 3 0 3 0 0 0 0 0 0 0 0 0 0 0 0 0 0 0 0 0 0 0 0 0 0 0 0 0 0 0 0 0 0 0 0 0 0 0
114 84 95 118 104 79 14 3 1 11 0 2 0 2 0 0 0 0 0 0 0 0 0 0 0 0 0 0 0 0 0 0 0 0 0 0 0 0 0 0 0 0 0 0 0 0 0
CIN
-0 -0 -0 -0 -0 -0 -0 -0 -0 -0 -0 -0 -0 -0 -0 -0 -0 -0 -0 -0 -0 -0 -0 -0 -0 -0 -0 -0 -0 -0 -0 -0 -0 -0 -0 -0 -0 -0 -0 -0 -0 -0 -0 -0 -0 -0 -0
-0 -0 -0 -0 -0 -0 -0 -0 -0 -0 -0 -0 -0 -0 -0 -0 -0 -0 -0 -0 -0 -0 -0 -0 -0 -0 -0 -0 -0 -0 -0 -0 -0 -0 -0 -0 -0 -0 -0 -0 -0 -0 -0 -0 -0 -0 -0
-0 -0 -0 -0 -0 -0 -0 -0 -0 -0 -0 -0 -0 -0 -0 -0 -0 -0 -0 -0 -0 -0 -0 -0 -0 -0 -0 -0 -0 -0 -0 -0 -0 -0 -0 -0 -0 -0 -0 -0 -0 -0 -0 -0 -0 -0 -0
-0 -0 -0 -0 -0 -0 -0 -0 -0 -0 -0 -0 -0 -0 -0 -0 -0 -0 -0 -0 -0 -0 -0 -0 -0 -0 -0 -0 -0 -0 -0 -0 -0 -0 -0 -0 -0 -0 -0 -0 -0 -0 -0 -0 -0 -0 -0
-0 -0 -0 -0 -0 -0 -0 -0 -0 -0 -0 -0 -0 -0 -0 -0 -0 -0 -0 -0 -0 -0 -0 -0 -0 -0 -0 -0 -0 -0 -0 -0 -0 -0 -0 -0 -0 -0 -0 -0 -0 -0 -0 -0 -0 -0 -0
-0 -0 -0 -0 -0 -0 -0 -0 -0 -0 -0 -0 -0 -0 -0 -0 -0 -0 -0 -0 -0 -0 -0 -0 -0 -0 -0 -0 -0 -0 -0 -0 -0 -0 -0 -0 -0 -0 -0 -0 -0 -0 -0 -0 -0 -0 -0
-0 -0 -0 -0 -0 -0 -0 -0 -0 -0 -0 -0 -0 -0 -0 -0 -0 -0 -0 -0 -0 -0 -0 -0 -0 -0 -0 -0 -0 -0 -0 -0 -0 -0 -0 -0 -0 -0 -0 -0 -0 -0 -0 -0 -0 -0 -0
-0 -0 -0 -0 -0 -0 -0 -0 -0 -0 -0 -0 -0 -0 -0 -0 -0 -0 -0 -0 -0 -0 -0 -0 -0 -0 -0 -0 -0 -0 -0 -0 -0 -0 -0 -0 -0 -0 -0 -0 -0 -0 -0 -0 -0 -0 -0
-0 -0 -0 -0 -0 -0 -0 -0 -0 -0 -0 -0 -0 -0 -0 -0 -0 -0 -0 -0 -0 -0 -0 -0 -0 -0 -0 -0 -0 -0 -0 -0 -0 -0 -0 -0 -0 -0 -0 -0 -0 -0 -0 -0 -0 -0 -0
-0 -0 -0 -0 -0 -0 -0 -0 -0 -0 -0 -0 -0 -0 -0 -0 -0 -0 -0 -0 -0 -0 -0 -0 -0 -0 -0 -0 -0 -0 -0 -0 -0 -0 -0 -0 -0 -0 -0 -0 -0 -0 -0 -0 -0 -0 -0
-0 -0 -0 -0 -0 -0 -0 -0 -0 -0 -0 -0 -0 -0 -0 -0 -0 -0 -0 -0 -0 -0 -0 -0 -0 -0 -0 -0 -0 -0 -0 -0 -0 -0 -0 -0 -0 -0 -0 -0 -0 -0 -0 -0 -0 -0 -0
-0 -0 -0 -0 -0 -0 -0 -0 -0 -0 -0 -0 -0 -0 -0 -0 -0 -0 -0 -0 -0 -0 -0 -0 -0 -0 -0 -0 -0 -0 -0 -0 -0 -0 -0 -0 -0 -0 -0 -0 -0 -0 -0 -0 -0 -0 -0
-0 -0 -0 -0 -0 -0 -0 -0 -0 -0 -0 -0 -0 -0 -0 -0 -0 -0 -0 -0 -0 -0 -0 -0 -0 -0 -0 -0 -0 -0 -0 -0 -0 -0 -0 -0 -0 -0 -0 -0 -0 -0 -0 -0 -0 -0 -0
-0 -0 -0 -0 -0 -0 -0 -0 -0 -0 -0 -0 -0 -0 -0 -0 -0 -0 -0 -0 -0 -0 -0 -0 -0 -0 -0 -0 -0 -0 -0 -0 -0 -0 -0 -0 -0 -0 -0 -0 -0 -0 -0 -0 -0 -0 -0
-0 -0 -0 -0 -0 -0 -0 -0 -0 -0 -0 -0 -0 -0 -0 -0 -0 -0 -0 -0 -0 -0 -0 -0 -0 -0 -0 -0 -0 -0 -0 -0 -0 -0 -0 -0 -0 -0 -0 -0 -0 -0 -0 -0 -0 -0 -0
-0 -0 -0 -0 -0 -0 -0 -0 -0 -0 -0 -0 -0 -0 -0 -0 -0 -0 -0 -0 -0 -0 -0 -0 -0 -0 -0 -0 -0 -0 -0 -0 -0 -0 -0 -0 -0 -0 -0 -0 -0 -0 -0 -0 -0 -0 -0
-0 -0 -0 -0 -0 -0 -0 -0 -0 -0 -0 -0 -0 -0 -0 -0 -0 -0 -0 -0 -0 -0 -0 -0 -0 -0 -0 -0 -0 -0 -0 -0 -0 -0 -0 -0 -0 -0 -0 -0 -0 -0 -0 -0 -0 -0 -0
-0 -0 -0 -0 -0 -0 -0 -0 -0 -0 -0 -0 -0 -0 -0 -0 -0 -0 -0 -0 -0 -0 -0 -0 -0 -0 -0 -0 -0 -0 -0 -0 -0 -0 -0 -0 -0 -0 -0 -0 -0 -0 -0 -0 -0 -0 -0
-2 -0 -0 -0 -0 -0 -7 -0 -0 -0 -0 -0 -0 -0 -0 -0 -0 -0 -0 -0 -0 -0 -0 -0 -0 -0 -0 -0 -0 -0 -0 -0 -0 -0 -0 -0 -0 -0 -0 -0 -0 -0 -0 -0 -0 -0 -0
-0 -1 -0 -1 -0 -0 -14 -0 -0 -0 -0 -0 -0 -0 -0 -0 -0 -0 -0 -0 -0 -0 -0 -0 -0 -0 -0 -0 -0 -0 -0 -0 -0 -0 -0 -0 -0 -0 -0 -0 -0 -0 -0 -0 -0 -0 -0
-0 -4 -1 -2 -0 -0 -0 -23 -0 -0 -0 -0 -0 -0 -0 -0 -0 -0 -0 -0 -0 -0 -0 -0 -0 -0 -0 -0 -0 -0 -0 -0 -0 -0 -0 -0 -0 -0 -0 -0 -0 -0 -0 -0 -0 -0 -0
-0 -0 -5 -0 -0 -0 -0 -0 -36 -0 -0 -0 -0 -0 -0 -0 -0 -0 -0 -0 -0 -0 -0 -0 -0 -0 -0 -0 -0 -0 -0 -0 -0 -0 -0 -0 -0 -0 -0 -0 -0 -0 -0 -0 -0 -0 -0
-0 -0 -2 -8 -24 -0 -0 -0 -0 -0 -0 -0 -0 -0 -0 -0 -0 -0 -0 -0 -0 -0 -0 -0 -0 -0 -0 -0 -0 -0 -0 -0 -0 -0 -0 -0 -0 -0 -0 -0 -0 -0 -0 -0 -0 -0 -0
-0 -0 -0 -4 -10 -7 -0 -0 -0 -0 -0 -0 -0 -0 -0 -0 -0 -0 -0 -0 -0 -0 -0 -0 -0 -0 -0 -0 -0 -0 -0 -0 -0 -0 -0 -0 -0 -0 -0 -0 -0 -0 -0 -0 -0 -0 -0
-0 -0 -0 -1 -12 -0 -20 -0 -0 -0 -0 -0 -0 -0 -0 -0 -0 -0 -0 -0 -0 -0 -0 -0 -0 -0 -0 -0 -0 -0 -0 -0 -0 -0 -0 -0 -0 -0 -0 -0 -0 -0 -0 -0 -0 -0 -0
-0 -0 -0 -0 -8 -0 -14 -0 -0 -0 -0 -0 -0 -0 -0 -0 -0 -0 -0 -0 -0 -0 -0 -0 -0 -0 -0 -0 -0 -0 -0 -0 -0 -0 -0 -0 -0 -0 -0 -0 -0 -0 -0 -0 -0 -0 -0
-0 -0 -0 -0 -0 -1 -14 -0 -0 -0 -0 -16 -0 -0 -0 -0 -0 -0 -0 -0 -0 -0 -0 -0 -0 -0 -0 -0 -0 -0 -0 -0 -0 -0 -0 -0 -0 -0 -0 -0 -0 -0 -0 -0 -0 -0 -0
-0 -0 -5 -0 -0 -4 -6 -0 -21 -0 -0 -0 -0 -0 -0 -0 -0 -0 -0 -0 -0 -0 -0 -0 -0 -0 -0 -0 -0 -0 -0 -0 -0 -0 -0 -0 -0 -0 -0 -0 -0 -0 -0 -0 -0 -0 -0
-2 -1 -0 -0 -0 -4 -18 -48 -22 -0 -0 -1 -0 -0 -0 -0 -0 -0 -0 -0 -0 -0 -0 -0 -0 -0 -0 -0 -0 -0 -0 -0 -0 -0 -0 -0 -0 -0 -0 -0 -0 -0 -0 -0 -0 -0 -0
Wind_Speed
19 19 19 19 19 19 19 19 19 19 19 20 20 21 22 23 22 21 19 16 15 11 11 11 11 14 16 19 19 18 18 20 20 20 23 23 21 17 18 16 14 11 13 12 26 28 26
19 20 20 20 20 19 19 19 19 19 19 20 21 22 22 22 20 20 18 16 15 14 12 12 13 14 15 18 17 17 18 18 19 20 21 21 19 19 16 15 14 15 9 3 9 26 23
20 20 20 20 21 20 20 19 19 19 19 20 21 21 21 21 20 19 18 18 16 13 13 14 15 16 16 17 15 15 16 17 17 18 20 19 17 16 18 19 18 11 10 6 13 13 18
23 22 22 21 21 21 21 20 19 19 20 20 20 20 19 20 18 19 17 15 2 15 15 15 15 15 16 16 14 16 15 16 17 17 18 18 16 17 18 19 19 20 14 17 16 19 19
21 24 23 23 21 22 22 21 20 20 20 20 19 19 19 19 17 18 16 18 18 16 15 15 15 14 16 15 14 15 14 14 16 18 18 18 17 18 17 18 17 19 20 19 19 9 12
24 22 25 25 24 22 23 22 21 21 21 20 20 20 20 20 17 17 17 17 17 17 16 16 16 15 16 14 13 14 15 14 14 15 17 17 17 18 19 19 18 14 19 11 16 12 7
26 26 26 28 26 24 23 23 22 22 22 21 21 21 21 20 17 15 17 16 16 16 15 15 17 17 17 14 14 17 16 14 15 16 19 17 18 22 20 18 11 10 12 3 23 24 18
31 29 29 29 28 26 25 24 23 23 23 22 22 22 22 21 17 18 19 17 16 14 16 17 16 15 15 15 14 18 16 19 17 18 17 16 19 18 16 17 15 13 11 15 21 28 23
34 32 30 30 29 27 26 25 25 24 24 23 23 23 23 22 19 19 19 17 15 16 15 15 14 13 15 15 15 18 18 17 17 17 19 16 17 16 15 17 19 18 16 12 12 17 22
30 36 33 30 29 28 27 27 26 25 25 24 24 24 24 23 15 18 18 17 14 15 14 16 16 16 15 15 17 17 19 17 16 16 18 15 16 18 16 18 19 18 16 8 13 17 28
31 32 36 34 32 28 27 27 27 25 25 25 24 24 24 19 15 17 17 15 13 14 16 16 16 15 16 18 17 19 18 17 16 16 15 18 15 17 19 19 18 17 15 14 14 16 18
33 33 34 36 34 32 28 27 27 26 25 25 25 24 24 18 15 15 16 12 13 14 14 14 16 17 17 21 19 17 20 21 16 16 16 14 14 16 16 13 17 16 18 15 16 17 20
36 36 35 35 35 35 32 29 27 26 26 26 25 25 24 18 15 15 13 12 12 13 14 13 16 18 19 21 21 22 23 25 24 20 20 15 16 17 18 18 18 24 25 21 21 21 23
38 38 38 36 36 35 33 32 28 26 25 25 26 26 19 19 15 15 14 13 14 14 12 14 15 16 17 20 21 23 22 22 23 21 16 18 17 19 19 20 19 21 25 25 25 23 20
39 39 39 38 37 36 34 32 30 28 25 24 25 21 20 17 16 16 15 14 15 12 11 11 15 15 16 17 20 22 23 21 21 23 21 17 15 15 18 17 20 21 24 21 20 21 21
42 43 38 39 38 37 35 32 29 27 25 23 23 23 21 15 12 16 18 17 15 12 11 12 13 14 17 17 19 22 21 19 19 20 18 16 15 15 16 15 19 21 20 22 23 25 25
41 42 40 37 40 39 37 34 30 27 23 21 24 25 18 16 15 19 20 18 15 11 11 12 12 14 15 16 16 20 21 18 16 19 19 16 15 17 15 18 18 19 22 21 19 21 22
44 46 45 40 46 40 38 35 32 27 22 22 24 30 19 16 20 21 22 19 15 11 12 14 13 13 13 12 14 16 19 18 16 18 18 17 15 15 15 15 14 15 19 20 21 21 19
43 44 43 44 43 42 38 36 33 30 26 25 30 29 21 21 28 26 22 21 18 14 13 13 13 13 12 12 16 13 15 16 16 18 18 17 16 17 17 15 15 15 14 16 16 16 18
44 43 43 40 39 40 39 39 36 33 31 29 31 35 29 28 28 28 24 23 21 17 15 14 14 12 12 13 13 14 14 15 15 17 19 15 14 12 13 15 14 9 11 9 13 16 16
44 44 42 42 43 42 41 46 36 36 34 32 35 40 33 36 38 31 25 24 23 20 18 14 16 14 11 16 15 13 12 15 16 17 17 15 15 13 9 5 5 2 3 6 8 9 14
46 45 45 45 44 43 45 38 39 39 36 40 43 39 36 36 29 34 31 30 25 21 17 20 19 12 11 14 13 12 12 14 17 15 16 16 18 18 18 14 13 10 5 5 6 7 7
47 47 47 46 44 46 44 44 42 41 39 41 40 37 36 38 37 34 36 32 28 22 22 20 16 16 13 12 13 15 14 13 14 15 15 17 18 20 20 18 17 11 12 7 9 10 11
46 47 48 46 46 46 45 43 40 40 40 35 37 36 40 45 41 41 36 30 29 25 26 21 18 15 15 9 11 14 16 16 14 16 13 15 17 19 22 23 18 17 15 13 8 7 9
46 46 46 47 44 44 44 45 45 41 42 46 36 40 42 45 44 41 37 35 30 27 26 22 19 17 6 12 16 18 20 18 17 18 13 12 14 20 21 22 22 16 13 8 10 9 7
45 44 44 44 45 44 43 42 45 45 46 39 42 38 41 42 48 39 38 34 32 31 27 25 18 10 14 18 18 22 23 21 19 18 17 12 11 17 20 22 20 17 15 13 13 10 9
41 42 42 42 43 44 44 42 41 43 46 41 35 33 36 41 38 35 40 40 31 29 27 23 20 20 19 19 23 23 25 21 24 20 18 15 15 15 19 23 20 12 13 13 13 15 13
40 39 40 40 40 42 43 40 38 33 34 49 37 38 41 40 37 36 33 32 32 30 28 22 21 24 20 24 26 25 25 22 25 19 18 15 14 18 16 23 23 9 13 12 15 13 12
40 40 38 38 37 40 40 39 39 41 36 34 41 36 35 37 33 33 34 31 32 31 27 24 28 23 20 24 24 23 26 22 25 28 14 19 14 16 11 20 17 5 16 11 14 14 13
Wind_Direction
294 291 291 290 296 291 289 296 299 295 300 300 303 301 303 299 289 278 265 245 233 202 190 164 134 92 76 61 56 55 54 44 49 49 39 38 40 45 38 43 42 46 21 9 313 305 309
292 285 285 283 281 284 288 291 290 298 300 300 301 302 304 296 285 278 265 248 230 210 172 139 117 93 71 49 64 63 52 50 48 47 43 43 44 35 42 40 44 32 34 36 19 309 313
286 281 280 281 276 277 278 286 294 295 297 296 301 302 300 293 289 284 271 264 237 177 129 105 98 84 72 60 74 69 59 52 53 52 43 47 51 46 28 22 23 49 55 52 46 20 341
273 277 274 275 279 272 275 286 293 293 292 294 295 296 294 298 293 289 280 262 173 65 70 74 88 89 65 74 75 67 64 55 52 55 49 54 58 54 42 25 21 24 43 35 32 17 355
290 270 273 276 279 274 277 285 290 290 290 289 293 291 295 297 291 294 286 21 31 40 54 69 78 87 59 75 74 64 64 61 56 53 54 57 60 52 52 47 42 30 25 24 32 55 41
285 287 276 273 271 278 279 283 287 288 290 289 291 290 297 297 290 295 25 76 74 66 70 82 86 76 62 66 69 68 64 58 63 59 57 57 56 50 48 46 41 33 21 33 318 35 21
284 281 277 265 269 274 280 284 284 285 288 293 292 293 297 295 287 290 70 87 58 45 52 68 60 57 54 68 78 58 60 59 60 59 46 57 54 44 44 46 50 42 36 15 297 14 25
271 277 272 268 267 272 277 279 281 284 287 294 297 298 298 295 285 320 19 16 36 61 52 87 83 76 66 63 55 49 56 43 45 43 49 58 50 48 48 45 44 42 42 37 22 8 19
269 270 272 271 269 271 275 276 276 282 285 292 297 300 300 293 299 349 10 35 68 97 46 66 80 72 58 53 44 36 46 43 43 44 40 53 52 50 49 42 37 41 42 38 41 31 33
276 266 268 270 271 273 274 273 276 278 281 289 296 299 302 298 346 347 354 7 32 74 40 37 52 62 66 59 47 41 42 43 47 45 41 55 53 48 48 43 40 43 35 50 64 51 25
275 271 265 266 268 271 274 273 273 277 280 285 292 299 302 317 333 340 351 7 36 58 7 32 43 70 60 51 47 34 44 44 43 43 49 47 53 47 47 43 45 41 37 70 67 55 50
271 269 267 263 263 265 269 273 272 274 279 283 287 293 296 309 323 336 342 16 36 7 5 23 41 43 50 43 44 45 38 39 52 49 50 57 61 57 53 44 56 36 49 71 64 57 47
267 265 264 263 261 260 263 267 270 272 275 278 282 286 288 298 312 328 341 356 351 346 4 14 18 33 37 32 37 37 32 26 32 40 41 54 63 57 52 50 61 43 49 56 54 53 48
267 263 261 260 259 258 259 260 265 269 274 278 281 283 293 290 300 314 322 327 321 339 355 5 11 21 28 32 31 27 34 35 36 39 49 47 53 52 49 56 51 52 54 55 53 51 50
281 262 258 257 257 256 255 257 259 263 270 277 282 284 285 291 291 298 307 309 319 334 352 4 359 3 17 31 26 24 24 34 35 33 41 47 57 61 57 62 58 53 52 60 63 60 58
273 273 261 254 253 253 252 252 254 257 263 271 275 277 277 287 296 292 291 297 310 327 343 348 351 357 357 17 24 19 28 41 41 40 43 54 51 64 55 68 61 58 63 58 60 53 57
274 270 267 258 252 249 249 248 248 250 255 265 268 267 276 276 282 278 279 291 302 316 331 337 345 349 353 2 22 19 22 37 51 42 40 51 55 50 59 53 53 57 56 61 67 63 60
270 269 267 270 254 246 244 244 242 241 244 256 260 259 268 267 265 271 273 284 295 303 313 325 337 341 349 3 15 22 16 27 47 39 41 45 46 42 48 59 70 70 57 59 58 58 66
273 269 267 266 260 256 239 238 237 233 232 247 254 257 265 260 258 261 272 277 283 291 297 312 321 333 346 353 350 17 21 28 35 31 38 41 42 33 41 52 60 55 61 64 66 72 69
270 267 266 268 269 263 252 237 231 229 230 242 249 250 254 254 262 259 261 269 273 281 291 301 313 327 332 336 345 355 15 18 25 24 21 39 38 39 31 29 31 46 58 69 71 63 65
269 265 263 264 265 261 262 240 231 225 226 236 244 248 248 250 248 253 256 266 262 271 280 288 300 301 317 319 328 345 4 8 10 10 20 31 21 24 26 12 24 46 95 78 83 90 69
267 264 261 261 263 264 262 259 232 230 218 236 242 245 246 248 251 244 249 255 257 265 267 277 285 292 297 309 324 339 352 358 354 14 13 16 9 10 8 21 29 32 73 96 92 104 113
266 263 261 258 261 259 260 255 256 226 220 237 240 246 246 245 243 243 246 248 253 258 266 277 275 285 289 296 320 335 343 355 358 359 7 5 6 1 1 10 5 25 39 83 76 94 92
266 263 261 257 258 257 256 256 260 234 217 239 242 243 240 245 240 243 247 246 250 251 263 268 273 275 295 318 327 335 334 335 341 339 359 2 4 358 352 355 11 22 41 52 77 89 119
266 262 260 257 257 256 255 254 255 255 224 238 239 239 242 243 243 245 243 246 250 252 255 261 268 280 285 300 307 311 313 318 326 335 345 356 3 347 346 347 347 12 25 43 36 40 105
265 262 259 258 255 253 255 255 255 256 230 232 241 240 243 244 243 242 239 240 244 244 251 259 268 268 277 290 295 293 297 304 311 325 339 357 354 347 345 338 346 0 17 35 30 19 44
268 261 258 257 257 253 253 256 255 259 230 233 239 235 237 242 246 238 238 237 244 242 246 253 252 261 271 277 280 286 289 298 292 304 318 334 339 334 332 329 337 357 8 16 5 8 34
262 262 259 258 258 251 250 252 251 254 236 233 243 232 234 243 249 244 240 236 238 239 243 247 251 262 263 267 274 280 284 288 287 299 309 317 330 331 340 327 328 16 6 358 358 11 19
255 252 255 256 258 251 250 249 248 247 246 251 242 235 234 239 244 252 248 248 244 239 246 239 259 253 259 264 270 281 281 286 282 284 298 302 318 330 337 335 344 17 341 349 349 353 352